| time (UTC) | temp C | wind direction | speed KPH | gust KPH | rain 1hr cm | rain 24hr cm | rain mn cm | humidity % | barometer mb |
| 20260906231401 | 31 | 323 | 12.9 | 14.5 | 0.00 | 0.00 | 0.00 | 100 | |
| 20260906230901 | 32 | 295 | 0.0 | 4.8 | 0.00 | 0.00 | 0.00 | 100 | |
| 20260906230401 | 32 | 295 | 0.0 | 14.5 | 0.00 | 0.00 | 0.00 | 100 | |
| 20260906225901 | 32 | 284 | 0.0 | 11.3 | 0.00 | 0.00 | 0.00 | 100 | |
| 20260906225401 | 32 | 322 | 8.0 | 9.7 | 0.00 | 0.00 | 0.00 | 100 | |
| 20260906224901 | 32 | 291 | 0.0 | 4.8 | 0.00 | 0.00 | 0.00 | 100 | |
| 20260906224401 | 31 | 260 | 0.0 | 0.0 | 0.00 | 0.00 | 0.00 | 100 | |
| 20260906223901 | 31 | 260 | 0.0 | 9.7 | 0.00 | 0.00 | 0.00 | 100 | |
| 20260906223401 | 32 | 239 | 0.0 | 9.7 | 0.00 | 0.00 | 0.00 | 100 | |
| 20260906222901 | 32 | 320 | 4.8 | 20.9 | 0.00 | 0.00 | 0.00 | 100 | |
| 20260906222401 | 30 | 358 | 12.9 | 12.9 | 0.00 | 0.00 | 0.00 | 100 | |
| 20260906221901 | 31 | 12 | 4.8 | 43.5 | 0.00 | 0.00 | 0.00 | 100 | |
| 20260906221401 | 30 | 54 | 0.0 | 16.1 | 0.00 | 0.00 | 0.00 | 100 | |
| 20260906220901 | 31 | 12 | 11.3 | 12.9 | 0.00 | 0.00 | 0.00 | 100 | |
| 20260906220401 | 32 | 358 | 4.8 | 12.9 | 0.00 | 0.00 | 0.00 | 100 | |
| 20260906215901 | 33 | 358 | 11.3 | 12.9 | 0.00 | 0.00 | 0.00 | 100 | |
| 20260906215401 | 33 | 130 | 0.0 | 11.3 | 0.00 | 0.00 | 0.00 | 100 | |
| 20260906214901 | 33 | 295 | 0.0 | 0.0 | 0.00 | 0.00 | 0.00 | 100 | |
| 20260906214401 | 32 | 295 | 0.0 | 0.0 | 0.00 | 0.00 | 0.00 | 100 | |
| 20260906213901 | 33 | 295 | 0.0 | 11.3 | 0.00 | 0.00 | 0.00 | 100 | |
| 20260906213401 | 33 | 203 | 0.0 | 8.0 | 0.00 | 0.00 | 0.00 | 100 | |
| 20260906212901 | 34 | 140 | 0.0 | 0.0 | 0.00 | 0.00 | 0.00 | 100 | |
| 20260906212401 | 32 | 140 | 0.0 | 9.7 | 0.00 | 0.00 | 0.00 | 100 | |
| 20260906211901 | 31 | 113 | 0.0 | 4.8 | 0.00 | 0.00 | 0.00 | 100 | |
| 20260906211401 | 33 | 142 | 0.0 | 0.0 | 0.00 | 0.00 | 0.00 | 100 | |
| 20260906210901 | 35 | 142 | 0.0 | 0.0 | 0.00 | 0.00 | 0.00 | 100 | |
| 20260906210401 | 33 | 142 | 0.0 | 8.0 | 0.00 | 0.00 | 0.00 | 100 | |
| 20260906205902 | 33 | 157 | 0.0 | 11.3 | 0.00 | 0.00 | 0.00 | 100 | |
| 20260906205401 | 32 | 94 | 0.0 | 17.7 | 0.00 | 0.00 | 0.00 | 100 | |
| 20260906204901 | 31 | 358 | 11.3 | 12.9 | 0.00 | 0.00 | 0.00 | 100 | |
| 20260906204401 | 32 | 198 | 0.0 | 0.0 | 0.00 | 0.00 | 0.00 | 100 | |
| 20260906203901 | 33 | 198 | 0.0 | 11.3 | 0.00 | 0.00 | 0.00 | 100 | |
| 20260906203401 | 31 | 358 | 3.2 | 16.1 | 0.00 | 0.00 | 0.00 | 100 | |
| 20260906202901 | 32 | 87 | 8.0 | 9.7 | 0.00 | 0.00 | 0.00 | 100 | |
| 20260906202401 | 33 | 151 | 0.0 | 12.9 | 0.00 | 0.00 | 0.00 | 100 | |
| 20260906201901 | 32 | 109 | 8.0 | 30.6 | 0.00 | 0.00 | 0.00 | 100 | |
| 20260906201401 | 31 | 94 | 4.8 | 8.0 | 0.00 | 0.00 | 0.00 | 100 | |
| 20260906200901 | 31 | 85 | 1.6 | 17.7 | 0.00 | 0.00 | 0.00 | 100 | |
| 20260906200401 | 31 | 112 | 8.0 | 27.4 | 0.00 | 0.00 | 0.00 | 100 | |
| 20260906195901 | 31 | 35 | 0.0 | 14.5 | 0.00 | 0.00 | 0.00 | 100 | |
| 20260906195401 | 34 | 135 | 0.0 | 11.3 | 0.00 | 0.00 | 0.00 | 100 | |
| 20260906194901 | 35 | 209 | 0.0 | 12.9 | 0.00 | 0.00 | 0.00 | 100 | |
| 20260906194401 | 33 | 198 | 8.0 | 19.3 | 0.00 | 0.00 | 0.00 | 100 | |
| 20260906193901 | 32 | 142 | 4.8 | 14.5 | 0.00 | 0.00 | 0.00 | 100 | |
| 20260906193401 | 33 | 118 | 0.0 | 14.5 | 0.00 | 0.00 | 0.00 | 100 | |
| 20260906192901 | 34 | 149 | 0.0 | 9.7 | 0.00 | 0.00 | 0.00 | 100 | |
| 20260906192401 | 32 | 71 | 0.0 | 0.0 | 0.00 | 0.00 | 0.00 | 100 | |
| 20260906191901 | 32 | 71 | 0.0 | 6.4 | 0.00 | 0.00 | 0.00 | 100 | |
| 20260906191401 | 30 | 71 | 0.0 | 25.7 | 0.00 | 0.00 | 0.00 | 100 | |
| 20260906190901 | 31 | 81 | 0.0 | 12.9 | 0.00 | 0.00 | 0.00 | 100 | |
| 20260906190401 | 32 | 120 | 6.4 | 11.3 | 0.00 | 0.00 | 0.00 | 100 | |
| 20260906185901 | 31 | 153 | 0.0 | 0.0 | 0.00 | 0.00 | 0.00 | 100 | |
| 20260906185401 | 33 | 153 | 0.0 | 6.4 | 0.00 | 0.00 | 0.00 | 100 | |
| 20260906184901 | 32 | 171 | 0.0 | 0.0 | 0.00 | 0.00 | 0.00 | 100 | |
| 20260906184401 | 32 | 171 | 0.0 | 9.7 | 0.00 | 0.00 | 0.00 | 100 | |
| 20260906183901 | 33 | 125 | 0.0 | 14.5 | 0.00 | 0.00 | 0.00 | 100 | |
| 20260906183401 | 32 | 182 | 11.3 | 12.9 | 0.00 | 0.00 | 0.00 | 100 | |
| 20260906182901 | 30 | 119 | 0.0 | 6.4 | 0.00 | 0.00 | 0.00 | 100 | |
| 20260906182401 | 31 | 358 | 0.0 | 9.7 | 0.00 | 0.00 | 0.00 | 100 | |
| 20260906181901 | 30 | 137 | 0.0 | 8.0 | 0.00 | 0.00 | 0.00 | 100 | |
| 20260906181401 | 32 | 102 | 6.4 | 14.5 | 0.00 | 0.00 | 0.00 | 100 | |
| 20260906180901 | 31 | 358 | 3.2 | 9.7 | 0.00 | 0.00 | 0.00 | 100 | |
| 20260906180401 | 30 | 101 | 0.0 | 9.7 | 0.00 | 0.00 | 0.00 | 100 | |
| 20260906175901 | 30 | 157 | 9.7 | 14.5 | 0.00 | 0.00 | 0.00 | 100 | |
| 20260906175401 | 30 | 160 | 0.0 | 0.0 | 0.00 | 0.00 | 0.00 | 100 | |
| 20260906174901 | 31 | 160 | 0.0 | 6.4 | 0.00 | 0.00 | 0.00 | 100 | |
| 20260906174401 | 30 | 154 | 0.0 | 9.7 | 0.00 | 0.00 | 0.00 | 100 | |
| 20260906173901 | 30 | 150 | 0.0 | 12.9 | 0.00 | 0.00 | 0.00 | 100 | |
| 20260906173401 | 29 | 105 | 0.0 | 11.3 | 0.00 | 0.00 | 0.00 | 100 | |
| 20260906172901 | 30 | 160 | 6.4 | 11.3 | 0.00 | 0.00 | 0.00 | 100 | |
| 20260906172401 | 30 | 139 | 8.0 | 12.9 | 0.00 | 0.00 | 0.00 | 100 | |
| 20260906171901 | 30 | 29 | 0.0 | 9.7 | 0.00 | 0.00 | 0.00 | 100 | |
| 20260906171401 | 28 | 108 | 0.0 | 11.3 | 0.00 | 0.00 | 0.00 | 100 | |
| 20260906170901 | 27 | 358 | 0.0 | 0.0 | 0.00 | 0.00 | 0.00 | 100 | |
| 20260906170402 | 27 | 358 | 0.0 | 0.0 | 0.00 | 0.00 | 0.00 | 100 | |
| 20260906165901 | 28 | 358 | 0.0 | 11.3 | 0.00 | 0.00 | 0.00 | 100 | |
| 20260906165401 | 27 | 37 | 3.2 | 6.4 | 0.00 | 0.00 | 0.00 | 100 | |
| 20260906164901 | 26 | 71 | 0.0 | 6.4 | 0.00 | 0.00 | 0.00 | 100 | |
| 20260906164401 | 26 | 45 | 1.6 | 8.0 | 0.00 | 0.00 | 0.00 | 100 | |
| 20260906163901 | 27 | 115 | 0.0 | 3.2 | 0.00 | 0.00 | 0.00 | 100 | |
| 20260906163401 | 28 | 77 | 0.0 | 8.0 | 0.00 | 0.00 | 0.00 | 100 | |
| 20260906162901 | 26 | 82 | 0.0 | 12.9 | 0.00 | 0.00 | 0.00 | 100 | |
| 20260906162401 | 27 | 95 | 6.4 | 12.9 | 0.00 | 0.00 | 0.00 | 100 | |
| 20260906161901 | 27 | 154 | 8.0 | 9.7 | 0.00 | 0.00 | 0.00 | 100 | |
| 20260906161401 | 27 | 113 | 6.4 | 12.9 | 0.00 | 0.00 | 0.00 | 100 | |
| 20260906160901 | 26 | 88 | 8.0 | 9.7 | 0.00 | 0.00 | 0.00 | 100 | |
| 20260906160402 | 27 | 104 | 4.8 | 11.3 | 0.00 | 0.00 | 0.00 | 100 | |
| 20260906155901 | 28 | 98 | 11.3 | 11.3 | 0.00 | 0.00 | 0.00 | 100 | |
| 20260906155401 | 26 | 102 | 4.8 | 11.3 | 0.00 | 0.00 | 0.00 | 100 | |
| 20260906154901 | 26 | 122 | 4.8 | 11.3 | 0.00 | 0.00 | 0.00 | 100 | |
| 20260906154402 | 26 | 97 | 9.7 | 12.9 | 0.00 | 0.00 | 0.00 | 100 | |
| 20260906153902 | 26 | 42 | 0.0 | 12.9 | 0.00 | 0.00 | 0.00 | 100 | |
| 20260906153402 | 26 | 157 | 0.0 | 0.0 | 0.00 | 0.00 | 0.00 | 100 | |
| 20260906152902 | 27 | 157 | 0.0 | 0.0 | 0.00 | 0.00 | 0.00 | 100 | |
| 20260906152402 | 28 | 157 | 0.0 | 0.0 | 0.00 | 0.00 | 0.00 | 100 | |
| 20260906151902 | 29 | 157 | 0.0 | 0.0 | 0.00 | 0.00 | 0.00 | 100 | |
| 20260906151402 | 30 | 157 | 0.0 | 0.0 | 0.00 | 0.00 | 0.00 | 100 | |
| 20260906150902 | 27 | 157 | 0.0 | 0.0 | 0.00 | 0.00 | 0.00 | 100 | |
| 20260906150402 | 28 | 157 | 0.0 | 0.0 | 0.00 | 0.00 | 0.00 | 100 | |
| 20260906145902 | 28 | 157 | 0.0 | 0.0 | 0.00 | 0.00 | 0.00 | 100 | |
| 20260906145402 | 28 | 157 | 0.0 | 9.7 | 0.00 | 0.00 | 0.00 | 100 | |
| 20260906144902 | 27 | 161 | 4.8 | 9.7 | 0.00 | 0.00 | 0.00 | 100 | |
| 20260906144402 | 24 | 37 | 0.0 | 9.7 | 0.00 | 0.00 | 0.00 | 100 | |
| 20260906143902 | 21 | 106 | 9.7 | 11.3 | 0.00 | 0.00 | 0.00 | 100 | |
| 20260906143402 | 22 | 52 | 6.4 | 12.9 | 0.00 | 0.00 | 0.00 | 100 | |
| 20260906142902 | 23 | 61 | 9.7 | 14.5 | 0.00 | 0.00 | 0.00 | 100 | |
| 20260906142402 | 23 | 80 | 9.7 | 12.9 | 0.00 | 0.00 | 0.00 | 100 | |
| 20260906141902 | 22 | 78 | 4.8 | 9.7 | 0.00 | 0.00 | 0.00 | 100 | |
| 20260906141402 | 20 | 33 | 6.4 | 14.5 | 0.00 | 0.00 | 0.00 | 100 | |
| 20260906140902 | 22 | 90 | 4.8 | 11.3 | 0.00 | 0.00 | 0.00 | 100 | |
| 20260906140402 | 21 | 132 | 4.8 | 12.9 | 0.00 | 0.00 | 0.00 | 100 | |
| 20260906135902 | 21 | 102 | 6.4 | 12.9 | 0.00 | 0.00 | 0.00 | 100 | |
| 20260906135402 | 21 | 64 | 6.4 | 12.9 | 0.00 | 0.00 | 0.00 | 100 | |
| 20260906134902 | 20 | 36 | 4.8 | 9.7 | 0.00 | 0.00 | 0.00 | 100 | |
| 20260906134402 | 20 | 43 | 3.2 | 11.3 | 0.00 | 0.00 | 0.00 | 100 | |
| 20260906133902 | 20 | 53 | 3.2 | 8.0 | 0.00 | 0.00 | 0.00 | 100 | |
| 20260906133402 | 18 | 60 | 0.0 | 0.0 | 0.00 | 0.00 | 0.00 | 100 | |
| 20260906132902 | 16 | 60 | 0.0 | 0.0 | 0.00 | 0.00 | 0.00 | 100 | |
| 20260906132402 | 15 | 60 | 0.0 | 0.0 | 0.00 | 0.00 | 0.00 | 100 | |
| 20260906131902 | 15 | 60 | 0.0 | 0.0 | 0.00 | 0.00 | 0.00 | 100 | |
| 20260906131402 | 14 | 60 | 0.0 | 0.0 | 0.00 | 0.00 | 0.00 | 100 | |
| 20260906130902 | 14 | 60 | 0.0 | 0.0 | 0.00 | 0.00 | 0.00 | 100 | |
| 20260906130402 | 14 | 60 | 0.0 | 0.0 | 0.00 | 0.00 | 0.00 | 100 | |
| 20260906125902 | 14 | 60 | 0.0 | 0.0 | 0.00 | 0.00 | 0.00 | 100 | |
| 20260906125402 | 14 | 60 | 0.0 | 0.0 | 0.00 | 0.00 | 0.00 | 100 | |
| 20260906124902 | 14 | 60 | 0.0 | 0.0 | 0.00 | 0.00 | 0.00 | 100 | |
| 20260906124402 | 14 | 60 | 0.0 | 3.2 | 0.00 | 0.00 | 0.00 | 100 | |
| 20260906123902 | 15 | 60 | 3.2 | 9.7 | 0.00 | 0.00 | 0.00 | 100 | |
| 20260906123402 | 15 | 113 | 3.2 | 3.2 | 0.00 | 0.00 | 0.00 | 100 | |
| 20260906122902 | 15 | 54 | 0.0 | 0.0 | 0.00 | 0.00 | 0.00 | 100 | |
| 20260906122402 | 14 | 54 | 0.0 | 0.0 | 0.00 | 0.00 | 0.00 | 100 | |
| 20260906121902 | 15 | 54 | 0.0 | 0.0 | 0.00 | 0.00 | 0.00 | 100 | |
| 20260906121402 | 15 | 54 | 0.0 | 0.0 | 0.00 | 0.00 | 0.00 | 100 | |
| 20260906120902 | 15 | 54 | 0.0 | 3.2 | 0.00 | 0.00 | 0.00 | 100 | |
| 20260906120402 | 15 | 64 | 0.0 | 0.0 | 0.00 | 0.00 | 0.00 | 100 | |
| 20260906115902 | 15 | 64 | 0.0 | 0.0 | 0.00 | 0.00 | 0.00 | 100 | |
| 20260906115402 | 15 | 64 | 0.0 | 0.0 | 0.00 | 0.00 | 0.00 | 100 | |
| 20260906114902 | 15 | 64 | 0.0 | 0.0 | 0.00 | 0.00 | 0.00 | 100 | |
| 20260906114402 | 15 | 64 | 0.0 | 6.4 | 0.00 | 0.00 | 0.00 | 100 | |
| 20260906113902 | 15 | 68 | 0.0 | 8.0 | 0.00 | 0.00 | 0.00 | 100 | |
| 20260906113402 | 15 | 47 | 0.0 | 4.8 | 0.00 | 0.00 | 0.00 | 100 | |
| 20260906112902 | 15 | 61 | 3.2 | 6.4 | 0.00 | 0.00 | 0.00 | 100 | |
| 20260906112402 | 15 | 47 | 0.0 | 4.8 | 0.00 | 0.00 | 0.00 | 100 | |
| 20260906111902 | 15 | 42 | 0.0 | 1.6 | 0.00 | 0.00 | 0.00 | 100 | |
| 20260906111402 | 15 | 60 | 0.0 | 0.0 | 0.00 | 0.00 | 0.00 | 100 | |
| 20260906110902 | 15 | 60 | 0.0 | 4.8 | 0.00 | 0.00 | 0.00 | 100 | |
| 20260906110402 | 15 | 57 | 0.0 | 3.2 | 0.00 | 0.00 | 0.00 | 100 | |
| 20260906105902 | 15 | 64 | 0.0 | 0.0 | 0.00 | 0.00 | 0.00 | 100 | |
| 20260906105402 | 15 | 64 | 0.0 | 0.0 | 0.00 | 0.00 | 0.00 | 100 | |
| 20260906104902 | 15 | 64 | 0.0 | 0.0 | 0.00 | 0.00 | 0.00 | 100 | |
| 20260906104402 | 15 | 64 | 0.0 | 0.0 | 0.00 | 0.00 | 0.00 | 100 | |
| 20260906103902 | 15 | 64 | 0.0 | 0.0 | 0.00 | 0.00 | 0.00 | 100 | |
| 20260906103402 | 15 | 64 | 0.0 | 0.0 | 0.00 | 0.00 | 0.00 | 100 | |
| 20260906102902 | 16 | 64 | 0.0 | 0.0 | 0.00 | 0.00 | 0.00 | 100 | |
| 20260906102402 | 16 | 64 | 0.0 | 4.8 | 0.00 | 0.00 | 0.00 | 100 | |
| 20260906101902 | 17 | 85 | 4.8 | 8.0 | 0.00 | 0.00 | 0.00 | 100 | |
| 20260906101402 | 17 | 56 | 4.8 | 8.0 | 0.00 | 0.00 | 0.00 | 100 | |
| 20260906100902 | 17 | 104 | 4.8 | 8.0 | 0.00 | 0.00 | 0.00 | 100 | |
| 20260906100402 | 16 | 99 | 0.0 | 0.0 | 0.00 | 0.00 | 0.00 | 100 | |
| 20260906095902 | 15 | 99 | 0.0 | 0.0 | 0.00 | 0.00 | 0.00 | 100 | |
| 20260906095402 | 16 | 99 | 0.0 | 0.0 | 0.00 | 0.00 | 0.00 | 100 | |
| 20260906094902 | 15 | 99 | 0.0 | 0.0 | 0.00 | 0.00 | 0.00 | 100 | |
| 20260906094403 | 16 | 99 | 0.0 | 0.0 | 0.00 | 0.00 | 0.00 | 100 | |
| 20260906093902 | 16 | 99 | 0.0 | 0.0 | 0.00 | 0.00 | 0.00 | 100 | |
| 20260906093402 | 16 | 99 | 0.0 | 0.0 | 0.00 | 0.00 | 0.00 | 100 | |
| 20260906092902 | 16 | 99 | 0.0 | 3.2 | 0.00 | 0.00 | 0.00 | 100 | |
| 20260906092402 | 16 | 68 | 0.0 | 0.0 | 0.00 | 0.00 | 0.00 | 100 | |
| 20260906091902 | 17 | 68 | 0.0 | 0.0 | 0.00 | 0.00 | 0.00 | 100 | |
| 20260906091402 | 17 | 68 | 0.0 | 6.4 | 0.00 | 0.00 | 0.00 | 100 | |
| 20260906090902 | 16 | 334 | 0.0 | 0.0 | 0.00 | 0.00 | 0.00 | 100 | |
| 20260906090402 | 16 | 334 | 0.0 | 0.0 | 0.00 | 0.00 | 0.00 | 100 | |
| 20260906085902 | 15 | 334 | 0.0 | 0.0 | 0.00 | 0.00 | 0.00 | 100 | |
| 20260906085402 | 16 | 334 | 0.0 | 0.0 | 0.00 | 0.00 | 0.00 | 100 | |
| 20260906084902 | 16 | 334 | 0.0 | 0.0 | 0.00 | 0.00 | 0.00 | 100 | |
| 20260906084402 | 16 | 334 | 0.0 | 0.0 | 0.00 | 0.00 | 0.00 | 100 | |
| 20260906083902 | 16 | 334 | 0.0 | 0.0 | 0.00 | 0.00 | 0.00 | 100 | |
| 20260906083402 | 16 | 334 | 0.0 | 0.0 | 0.00 | 0.00 | 0.00 | 100 | |
| 20260906082902 | 15 | 334 | 0.0 | 0.0 | 0.00 | 0.00 | 0.00 | 100 | |
| 20260906082402 | 15 | 334 | 0.0 | 0.0 | 0.00 | 0.00 | 0.00 | 100 | |
| 20260906081902 | 16 | 334 | 0.0 | 0.0 | 0.00 | 0.00 | 0.00 | 100 | |
| 20260906081402 | 16 | 334 | 0.0 | 0.0 | 0.00 | 0.00 | 0.00 | 100 | |
| 20260906080902 | 16 | 334 | 0.0 | 0.0 | 0.00 | 0.00 | 0.00 | 100 | |
| 20260906080402 | 16 | 334 | 0.0 | 0.0 | 0.00 | 0.00 | 0.00 | 100 | |
| 20260906075902 | 16 | 334 | 0.0 | 0.0 | 0.00 | 0.00 | 0.00 | 100 | |
| 20260906075402 | 16 | 334 | 0.0 | 0.0 | 0.00 | 0.00 | 0.00 | 100 | |
| 20260906074902 | 17 | 334 | 0.0 | 0.0 | 0.00 | 0.00 | 0.00 | 100 | |
| 20260906074402 | 17 | 334 | 0.0 | 0.0 | 0.00 | 0.00 | 0.00 | 100 | |
| 20260906073902 | 17 | 334 | 0.0 | 0.0 | 0.00 | 0.00 | 0.00 | 100 | |
| 20260906073402 | 17 | 334 | 0.0 | 0.0 | 0.00 | 0.00 | 0.00 | 100 | |
| 20260906072902 | 18 | 334 | 0.0 | 0.0 | 0.00 | 0.00 | 0.00 | 100 | |
| 20260906072402 | 18 | 334 | 0.0 | 0.0 | 0.00 | 0.00 | 0.00 | 100 | |
| 20260906071902 | 18 | 334 | 0.0 | 0.0 | 0.00 | 0.00 | 0.00 | 100 | |
| 20260906071402 | 17 | 334 | 0.0 | 0.0 | 0.00 | 0.00 | 0.00 | 100 | |
| 20260906070902 | 18 | 334 | 0.0 | 0.0 | 0.00 | 0.00 | 0.00 | 100 | |
| 20260906070402 | 18 | 334 | 0.0 | 0.0 | 0.00 | 0.00 | 0.00 | 100 | |
| 20260906065902 | 19 | 334 | 0.0 | 0.0 | 0.00 | 0.00 | 0.00 | 100 | |
| 20260906065402 | 19 | 334 | 0.0 | 0.0 | 0.00 | 0.00 | 0.00 | 100 | |
| 20260906064902 | 19 | 334 | 0.0 | 0.0 | 0.00 | 0.00 | 0.00 | 100 | |
| 20260906064402 | 19 | 334 | 0.0 | 0.0 | 0.00 | 0.00 | 0.00 | 100 | |
| 20260906063902 | 18 | 334 | 0.0 | 0.0 | 0.00 | 0.00 | 0.00 | 100 | |
| 20260906063402 | 17 | 334 | 0.0 | 0.0 | 0.00 | 0.00 | 0.00 | 100 | |
| 20260906062902 | 18 | 334 | 0.0 | 0.0 | 0.00 | 0.00 | 0.00 | 100 | |
| 20260906062402 | 18 | 334 | 0.0 | 0.0 | 0.00 | 0.00 | 0.00 | 100 | |
| 20260906061902 | 20 | 334 | 0.0 | 0.0 | 0.00 | 0.00 | 0.00 | 100 | |
| 20260906061402 | 20 | 334 | 0.0 | 0.0 | 0.00 | 0.00 | 0.00 | 100 | |
| 20260906060902 | 20 | 334 | 0.0 | 0.0 | 0.00 | 0.00 | 0.00 | 100 | |
| 20260906060402 | 20 | 334 | 0.0 | 0.0 | 0.00 | 0.00 | 0.00 | 100 | |
| 20260906055902 | 20 | 334 | 0.0 | 0.0 | 0.00 | 0.00 | 0.00 | 100 | |
| 20260906055402 | 21 | 334 | 0.0 | 0.0 | 0.00 | 0.00 | 0.00 | 100 | |
| 20260906054902 | 21 | 334 | 0.0 | 0.0 | 0.00 | 0.00 | 0.00 | 100 | |
| 20260906054402 | 20 | 334 | 0.0 | 0.0 | 0.00 | 0.00 | 0.00 | 100 | |
| 20260906053902 | 20 | 334 | 0.0 | 0.0 | 0.00 | 0.00 | 0.00 | 100 | |
| 20260906053402 | 21 | 334 | 0.0 | 0.0 | 0.00 | 0.00 | 0.00 | 100 | |
| 20260906052902 | 21 | 334 | 0.0 | 0.0 | 0.00 | 0.00 | 0.00 | 100 | |
| 20260906052402 | 21 | 334 | 0.0 | 0.0 | 0.00 | 0.00 | 0.00 | 100 | |
| 20260906051902 | 21 | 334 | 0.0 | 0.0 | 0.00 | 0.00 | 0.00 | 100 | |
| 20260906051402 | 22 | 334 | 0.0 | 0.0 | 0.00 | 0.00 | 0.00 | 100 | |
| 20260906050902 | 21 | 334 | 0.0 | 0.0 | 0.00 | 0.00 | 0.00 | 100 | |
| 20260906050402 | 22 | 334 | 0.0 | 0.0 | 0.00 | 0.00 | 0.00 | 100 | |
| 20260906045902 | 21 | 334 | 0.0 | 0.0 | 0.00 | 0.00 | 0.00 | 100 | |
| 20260906045402 | 21 | 334 | 0.0 | 0.0 | 0.00 | 0.00 | 0.00 | 100 | |
| 20260906044902 | 22 | 334 | 0.0 | 0.0 | 0.00 | 0.00 | 0.00 | 100 | |
| 20260906044402 | 21 | 334 | 0.0 | 0.0 | 0.00 | 0.00 | 0.00 | 100 | |
| 20260906043902 | 22 | 334 | 0.0 | 0.0 | 0.00 | 0.00 | 0.00 | 100 | |
| 20260906043402 | 22 | 334 | 0.0 | 0.0 | 0.00 | 0.00 | 0.00 | 100 | |
| 20260906042902 | 21 | 334 | 0.0 | 0.0 | 0.00 | 0.00 | 0.00 | 100 | |
| 20260906042402 | 22 | 334 | 0.0 | 0.0 | 0.00 | 0.00 | 0.00 | 100 | |
| 20260906041902 | 22 | 334 | 0.0 | 0.0 | 0.00 | 0.00 | 0.00 | 100 | |
| 20260906041402 | 22 | 334 | 0.0 | 0.0 | 0.00 | 0.00 | 0.00 | 100 | |
| 20260906040902 | 22 | 334 | 0.0 | 0.0 | 0.00 | 0.00 | 0.00 | 100 | |
| 20260906040402 | 21 | 334 | 0.0 | 0.0 | 0.00 | 0.00 | 0.00 | 100 | |
| 20260906035902 | 22 | 334 | 0.0 | 0.0 | 0.00 | 0.00 | 0.00 | 100 | |
| 20260906035402 | 22 | 334 | 0.0 | 0.0 | 0.00 | 0.00 | 0.00 | 100 | |
| 20260906034902 | 22 | 334 | 0.0 | 0.0 | 0.00 | 0.00 | 0.00 | 100 | |
| 20260906034402 | 22 | 334 | 0.0 | 0.0 | 0.00 | 0.00 | 0.00 | 100 | |
| 20260906033902 | 22 | 334 | 0.0 | 0.0 | 0.00 | 0.00 | 0.00 | 100 | |
| 20260906033402 | 23 | 334 | 0.0 | 0.0 | 0.00 | 0.00 | 0.00 | 100 | |
| 20260906032902 | 23 | 334 | 0.0 | 0.0 | 0.00 | 0.00 | 0.00 | 100 | |
| 20260906032402 | 22 | 334 | 0.0 | 0.0 | 0.00 | 0.00 | 0.00 | 100 | |
| 20260906031902 | 23 | 334 | 0.0 | 0.0 | 0.00 | 0.00 | 0.00 | 100 | |
| 20260906031402 | 23 | 334 | 0.0 | 0.0 | 0.00 | 0.00 | 0.00 | 100 | |
| 20260906030902 | 23 | 334 | 0.0 | 0.0 | 0.00 | 0.00 | 0.00 | 100 | |
| 20260906030402 | 23 | 334 | 0.0 | 0.0 | 0.00 | 0.00 | 0.00 | 100 | |
| 20260906025902 | 23 | 334 | 0.0 | 0.0 | 0.00 | 0.00 | 0.00 | 100 | |
| 20260906025402 | 23 | 334 | 0.0 | 0.0 | 0.00 | 0.00 | 0.00 | 100 | |
| 20260906024902 | 23 | 334 | 0.0 | 0.0 | 0.00 | 0.00 | 0.00 | 100 | |
| 20260906024402 | 24 | 334 | 0.0 | 0.0 | 0.00 | 0.00 | 0.00 | 100 | |
| 20260906023902 | 24 | 334 | 0.0 | 0.0 | 0.00 | 0.00 | 0.00 | 100 | |
| 20260906023402 | 24 | 334 | 0.0 | 0.0 | 0.00 | 0.00 | 0.00 | 100 | |
| 20260906022902 | 24 | 334 | 0.0 | 0.0 | 0.00 | 0.00 | 0.00 | 100 | |
| 20260906022402 | 24 | 334 | 0.0 | 0.0 | 0.00 | 0.00 | 0.00 | 100 | |
| 20260906021902 | 24 | 334 | 0.0 | 0.0 | 0.00 | 0.00 | 0.00 | 100 | |
| 20260906021402 | 25 | 334 | 0.0 | 0.0 | 0.00 | 0.00 | 0.00 | 100 | |
| 20260906020902 | 25 | 334 | 0.0 | 0.0 | 0.00 | 0.00 | 0.00 | 100 | |
| 20260906020402 | 25 | 334 | 0.0 | 0.0 | 0.00 | 0.00 | 0.00 | 100 | |
| 20260906015903 | 26 | 334 | 0.0 | 0.0 | 0.00 | 0.00 | 0.00 | 100 | |
| 20260906015402 | 25 | 334 | 0.0 | 0.0 | 0.00 | 0.00 | 0.00 | 100 | |
| 20260906014903 | 26 | 334 | 0.0 | 0.0 | 0.00 | 0.00 | 0.00 | 100 | |
| 20260906014402 | 26 | 334 | 0.0 | 0.0 | 0.00 | 0.00 | 0.00 | 100 | |
| 20260906013903 | 27 | 334 | 0.0 | 4.8 | 0.00 | 0.00 | 0.00 | 100 | |
| 20260906013403 | 26 | 254 | 0.0 | 0.0 | 0.00 | 0.00 | 0.00 | 100 | |
| 20260906012903 | 26 | 254 | 0.0 | 0.0 | 0.00 | 0.00 | 0.00 | 100 | |
| 20260906012403 | 27 | 254 | 0.0 | 0.0 | 0.00 | 0.00 | 0.00 | 100 | |
| 20260906011903 | 27 | 254 | 0.0 | 0.0 | 0.00 | 0.00 | 0.00 | 100 | |
| 20260906011403 | 27 | 254 | 0.0 | 0.0 | 0.00 | 0.00 | 0.00 | 100 | |
| 20260906010903 | 27 | 254 | 0.0 | 0.0 | 0.00 | 0.00 | 0.00 | 100 | |
| 20260906010403 | 28 | 254 | 0.0 | 0.0 | 0.00 | 0.00 | 0.00 | 100 | |
| 20260906005903 | 27 | 254 | 0.0 | 0.0 | 0.00 | 0.00 | 0.00 | 100 | |
| 20260906005403 | 28 | 254 | 0.0 | 9.7 | 0.00 | 0.00 | 0.00 | 100 | |
| 20260906004903 | 28 | 182 | 0.0 | 0.0 | 0.00 | 0.00 | 0.00 | 100 | |
| 20260906004403 | 28 | 182 | 0.0 | 12.9 | 0.00 | 0.00 | 0.00 | 100 | |
| 20260906003903 | 28 | 244 | 0.0 | 4.8 | 0.00 | 0.00 | 0.00 | 100 | |
| 20260906003403 | 28 | 213 | 0.0 | 6.4 | 0.00 | 0.00 | 0.00 | 100 | |
| 20260906002903 | 28 | 260 | 0.0 | 12.9 | 0.00 | 0.00 | 0.00 | 100 | |
| 20260906002403 | 28 | 267 | 8.0 | 9.7 | 0.00 | 0.00 | 0.00 | 100 | |
| 20260906001903 | 28 | 336 | 4.8 | 12.9 | 0.00 | 0.00 | 0.00 | 100 | |
| 20260906001403 | 28 | 300 | 4.8 | 11.3 | 0.00 | 0.00 | 0.00 | 100 | |
| 20260906000903 | 30 | 267 | 0.0 | 16.1 | 0.00 | 0.00 | 0.00 | 100 | |
| 20260906000403 | 30 | 208 | 4.8 | 8.0 | 0.00 | 0.00 | 0.00 | 100 | |
| 20260905235903 | 29 | 244 | 0.0 | 14.5 | 0.00 | 0.00 | 0.00 | 100 | |
| 20260905235403 | 29 | 285 | 0.0 | 27.4 | 0.00 | 0.00 | 0.00 | 100 | |
| 20260905234903 | 28 | 358 | 11.3 | 19.3 | 0.00 | 0.00 | 0.00 | 100 | |
| 20260905234403 | 28 | 289 | 9.7 | 20.9 | 0.00 | 0.00 | 0.00 | 100 | |
| 20260905233903 | 28 | 331 | 8.0 | 20.9 | 0.00 | 0.00 | 0.00 | 100 | |
| 20260905233403 | 29 | 289 | 0.0 | 19.3 | 0.00 | 0.00 | 0.00 | 100 | |
| 20260905232903 | 30 | 257 | 12.9 | 24.1 | 0.00 | 0.00 | 0.00 | 100 | |
| 20260905232403 | 30 | 292 | 8.0 | 25.7 | 0.00 | 0.00 | 0.00 | 100 | |
| 20260905231903 | 30 | 295 | 14.5 | 19.3 | 0.00 | 0.00 | 0.00 | 100 |